TimeEDT,TemperatureF,Dew PointF,Humidity,Sea Level PressureIn,VisibilityMPH,Wind Direction,Wind SpeedMPH,Gust SpeedMPH,PrecipitationIn,Events,Conditions,WindDirDegrees,DateUTC
12:55 AM,62.1,57.9,86,30.18,10.0,SE,3.5,-,N/A,,Clear,130,2013-08-25 04:55:00
1:55 AM,61.0,57.9,90,30.18,10.0,Calm,Calm,-,N/A,,Clear,0,2013-08-25 05:55:00
2:55 AM,61.0,59.0,93,30.15,10.0,East,4.6,-,N/A,,Clear,100,2013-08-25 06:55:00
3:55 AM,60.1,59.0,96,30.14,10.0,SE,3.5,-,N/A,,Clear,130,2013-08-25 07:55:00
4:55 AM,61.0,59.0,93,30.12,10.0,East,4.6,-,N/A,,Clear,90,2013-08-25 08:55:00
5:55 AM,62.1,59.0,90,30.11,10.0,SE,6.9,-,N/A,,Mostly Cloudy,130,2013-08-25 09:55:00
6:55 AM,63.0,57.9,84,30.10,10.0,SE,5.8,-,N/A,,Mostly Cloudy,130,2013-08-25 10:55:00
7:55 AM,64.0,57.9,80,30.09,10.0,SSE,5.8,-,N/A,,Overcast,150,2013-08-25 11:55:00
8:55 AM,66.9,57.9,73,30.06,10.0,South,5.8,-,N/A,,Mostly Cloudy,190,2013-08-25 12:55:00
9:55 AM,72.0,57.9,61,30.00,10.0,SSW,15.0,25.3,N/A,Thunderstorm,Overcast,210,2013-08-25 13:55:00
10:19 AM,72.0,59.0,64,30.04,10.0,NNW,8.1,25.3,N/A,Thunderstorm,Thunderstorm,340,2013-08-25 14:19:00
10:34 AM,70.0,61.0,73,30.09,7.0,North,10.4,-,0.01,Rain-Thunderstorm,Rain,360,2013-08-25 14:34:00
10:55 AM,68.0,62.1,81,30.04,7.0,SE,6.9,-,0.07,Rain-Thunderstorm,Light Rain,140,2013-08-25 14:55:00
11:36 AM,69.1,63.0,81,30.06,10.0,Variable,4.6,-,0.00,,Overcast,0,2013-08-25 15:36:00
11:55 AM,68.0,63.0,84,30.05,10.0,ESE,4.6,-,0.00,Rain,Light Rain,120,2013-08-25 15:55:00
12:29 PM,69.1,64.0,84,30.04,10.0,SSE,5.8,-,0.00,Rain,Light Rain,160,2013-08-25 16:29:00
12:47 PM,70.0,64.0,81,30.03,10.0,South,8.1,-,0.00,Rain-Thunderstorm,Light Rain,170,2013-08-25 16:47:00
12:55 PM,71.1,64.0,78,30.02,10.0,SSE,8.1,-,0.00,Thunderstorm,Overcast,160,2013-08-25 16:55:00
1:02 PM,70.0,64.0,81,30.02,10.0,SE,9.2,-,N/A,,Overcast,140,2013-08-25 17:02:00
1:55 PM,72.0,66.0,81,30.01,10.0,East,4.6,-,N/A,,Overcast,90,2013-08-25 17:55:00
2:55 PM,75.9,66.9,74,29.98,10.0,SSW,9.2,-,N/A,,Overcast,210,2013-08-25 18:55:00
3:55 PM,77.0,68.0,74,29.96,10.0,SSW,6.9,-,N/A,,Overcast,200,2013-08-25 19:55:00
4:33 PM,75.9,68.0,76,29.96,10.0,SW,9.2,-,N/A,Thunderstorm,Overcast,220,2013-08-25 20:33:00
4:45 PM,75.0,68.0,79,30.05,2.5,North,23.0,38.0,0.00,Rain-Thunderstorm,Heavy Thunderstorms and Rain,350,2013-08-25 20:45:00
4:49 PM,69.8,66.2,88,30.04,0.8,NNW,20.7,39.1,0.10,Rain-Thunderstorm,Heavy Thunderstorms and Rain,340,2013-08-25 20:49:00
4:55 PM,68.0,66.0,93,30.01,0.5,NNE,5.8,39.1,0.51,Fog-Rain-Thunderstorm,Heavy Thunderstorms and Rain,20,2013-08-25 20:55:00
4:59 PM,68.0,66.0,93,30.01,1.0,NNE,4.6,23.0,0.14,Rain-Thunderstorm,Heavy Thunderstorms and Rain,20,2013-08-25 20:59:00
5:06 PM,68.0,66.9,96,29.97,3.0,SE,3.5,-,0.25,Rain-Thunderstorm,Light Thunderstorms and Rain,140,2013-08-25 21:06:00
5:15 PM,69.1,66.9,93,29.96,9.0,South,5.8,-,0.25,Rain-Thunderstorm,Light Thunderstorms and Rain,170,2013-08-25 21:15:00
5:45 PM,70.0,68.0,93,29.98,10.0,West,5.8,-,0.28,Rain,Light Rain,260,2013-08-25 21:45:00
5:55 PM,71.1,68.0,90,29.97,10.0,Calm,Calm,-,0.28,,Partly Cloudy,0,2013-08-25 21:55:00
6:18 PM,71.1,69.1,93,29.97,10.0,West,3.5,-,N/A,Thunderstorm,Clear,260,2013-08-25 22:18:00
6:48 PM,73.9,70.0,87,29.97,10.0,Calm,Calm,-,N/A,,Clear,0,2013-08-25 22:48:00
6:55 PM,75.0,70.0,84,29.96,10.0,Variable,3.5,-,N/A,,Clear,0,2013-08-25 22:55:00
7:55 PM,73.9,70.0,87,29.96,8.0,Calm,Calm,-,N/A,,Partly Cloudy,0,2013-08-25 23:55:00
8:55 PM,71.1,69.1,93,29.96,7.0,Calm,Calm,-,N/A,,Clear,0,2013-08-26 00:55:00
9:55 PM,71.1,68.0,90,29.96,6.0,Calm,Calm,-,N/A,,Partly Cloudy,0,2013-08-26 01:55:00
10:55 PM,71.1,68.0,90,29.96,7.0,Calm,Calm,-,N/A,,Partly Cloudy,0,2013-08-26 02:55:00
11:41 PM,70.0,68.0,93,29.95,5.0,East,4.6,-,0.01,Rain-Thunderstorm,Rain,100,2013-08-26 03:41:00
11:52 PM,69.8,66.2,88,29.95,2.5,Variable,3.5,-,0.04,Rain-Thunderstorm,Heavy Thunderstorms and Rain,0,2013-08-26 03:52:00
11:55 PM,70.0,66.9,90,29.94,2.5,NNE,3.5,-,0.08,Rain-Thunderstorm,Light Thunderstorms and Rain,30,2013-08-26 03:55:00